This demonstration page uses our WeatherBlox Daily Observations layout. Learn more.

41.55636, -103.73856

Hourly Observations for October 8, 2019

Temp ( °F °C ) Dew Point ( °F °C ) Humidity (%) Winds ( mph kmh ) Pressure ( in mb ) Visibility ( mi km ) Precip ( " mm )
12:58 am 00:58 Clear 63 17.2 12 -10.9 14 14 S 17 28 29.98 1015 10 16.0934 0 0
1:58 am 01:58 Clear 63 17.3 11 -11.8 13 13 SSW 17 28 29.97 1015 10 16.0934 0 0
2:58 am 02:58 Clear 55 12.9 12 -11 18 18 SSW 15 24 29.91 1013 10 16.0934 0 0
3:58 am 03:58 Clear 53 11.9 15 -9.6 21 21 SSW 18 30 29.92 1013 10 16.0934 0 0
4:58 am 04:58 Clear 53 11.4 14 -9.8 22 22 SW 10 17 29.9 1013 10 16.0934 0 0
5:58 am 05:58 Clear 51 10.6 14 -9.9 23 23 WSW 9 15 29.87 1012 10 16.0934 0 0
6:58 am 06:58 Clear 51 10.7 14 -10.2 22 22 Calm 29.86 1011 10 16.0934 0 0
7:58 am 07:58 Clear 47 8.2 13 -10.4 26 26 SW 7 11 29.86 1011 10 16.0934 0 0
8:58 am 08:58 Clear 46 7.8 12 -11.3 25 25 WSW 7 11 29.84 1011 10 16.0934 0 0
9:58 am 09:58 Clear 44 6.5 9 -13 24 24 SW 10 17 29.84 1011 10 16.0934 0 0
10:58 am 10:58 Clear 45 7.2 5 -15.2 19 19 SW 12 19 29.84 1011 10 16.0934 0 0
11:58 am 11:58 Clear 49 9.4 4 -15.7 15 15 W 8 13 29.84 1011 10 16.0934 0 0
12:58 pm 12:58 Clear 47 8.6 2 -16.5 15 15 WSW 9 15 29.84 1010 10 16.0934 0 0
1:58 pm 13:58 Sunny 49 9.2 7 -13.7 18 18 WSW 8 13 29.83 1010 10 16.0934 0 0
2:58 pm 14:58 Sunny 64 17.6 10 -12.5 12 12 W 8 13 29.8 1009 10 16.0934 0 0
3:58 pm 15:58 Sunny 72 22.1 8 -13.6 8 8 W 18 30 29.78 1009 10 16.0934 0 0
4:58 pm 16:58 Sunny 74 23.3 9 -12.9 8 8 W 17 28 29.78 1009 10 16.0934 0 0
5:58 pm 17:58 Sunny 76 24.3 7 -13.9 7 7 W 18 30 29.76 1008 10 16.0934 0 0
6:58 pm 18:58 Sunny 76 24.7 8 -13.4 7 7 W 16 26 29.72 1007 10 16.0934 0 0
7:58 pm 19:58 Sunny 78 25.6 7 -13.8 6 6 W 17 28 29.71 1006 10 16.0934 0 0
8:58 pm 20:58 Sunny 79 26.3 9 -13 6 6 W 12 19 29.69 1005 10 16.0934 0 0
9:58 pm 21:58 Sunny 79 26.3 10 -12.2 7 7 W 17 28 29.68 1005 10 16.0934 0 0
10:58 pm 22:58 Sunny 78 25.8 14 -10.1 8 8 NNW 8 13 29.66 1004 10 16.0934 0 0
11:58 pm 23:58 Sunny 74 23.5 15 -9.3 10 10 NNW 5 7 29.67 1005 10 16.0934 0 0

Powered by AerisWeather